AO-07 1 07530U 74089B 26208.54125306 -.00000024 00000-0 14195-3 0 9997 2 07530 101.9910 222.2088 0012579 55.4579 98.9910 12.53698780365572 UO-11 1 14781U 84021B 26208.02240936 .00001491 00000-0 15692-3 0 9991 2 14781 97.8087 173.1610 0008988 58.7973 301.4125 14.90877098263069 LO-19 1 20442U 90005G 26208.01974548 .00000124 00000-0 60864-4 0 9997 2 20442 98.8846 230.9213 0012686 89.7372 270.5265 14.34133627908105 AO-27 1 22825U 93061C 26208.13600653 .00000092 00000-0 52094-4 0 9995 2 22825 98.6859 275.5304 0008063 351.2303 8.8738 14.30951631712711 FO-29 1 24278U 96046B 26208.38251211 -.00000022 00000-0 14752-4 0 9997 2 24278 98.5209 51.7446 0349749 352.3301 7.2571 13.53275858478602 GO-32 1 25397U 98043D 26208.38376868 .00000061 00000-0 46375-4 0 9993 2 25397 99.0095 202.1612 0002365 95.5843 264.5605 14.24435383457050 ISS 1 25544U 98067A 26208.37844919 .00011554 00000-0 21591-3 0 9990 2 25544 51.6322 101.1989 0007008 342.7043 17.3706 15.49203967577984 NO-44 1 26931U 01043C 26208.18054120 .00000127 00000-0 78434-4 0 9998 2 26931 67.0508 140.8305 0005814 267.7252 92.3185 14.31969089296172 SO-50 1 27607U 02058C 26207.80450946 .00001274 00000-0 16689-3 0 9997 2 27607 64.5528 6.4018 0074176 255.1416 104.1466 14.83120707270332 CO-55 1 27844U 03031E 26208.00796652 .00000310 00000-0 15310-3 0 9992 2 27844 98.6748 216.0679 0010791 72.3188 287.9168 14.24357848197348 RS-22 1 27939U 03042A 26208.62191966 .00000619 00000-0 10348-3 0 9992 2 27939 98.3480 34.1272 0012095 135.4215 315.5812 14.73532194221505 CO-65 1 32785U 08021C 26208.61498848 .00005121 00000-0 32090-3 0 9998 2 32785 97.8303 190.8913 0006933 246.1292 113.9211 15.09800906991291 CO-66 1 32791U 08021J 26208.46376188 .00019405 00000-0 59062-3 0 9998 2 32791 97.7534 208.3275 0004253 134.5523 225.6067 15.34046988993460 RS-30 1 32953U 08025A 26208.57894392 -.00000120 00000-0 -93211-3 0 9996 2 32953 82.5067 330.3151 0018996 220.6862 139.2800 12.43180671824715 SRMSAT 1 37841U 11058D 26208.01695337 .00000371 00000-0 57374-4 0 9991 2 37841 19.9703 178.3861 0011523 282.2686 129.1795 14.11583108763455 ZACUBE-1 1 39417U 13066B 26208.13133763 .00004285 00000-0 33033-3 0 9999 2 39417 97.7984 170.6597 0043953 117.1114 243.4603 15.01394529686725 Delfi-N3xt 1 39428U 13066N 26208.19547517 .00008701 00000-0 74640-3 0 9999 2 39428 97.8316 128.4746 0075945 74.0243 286.9327 14.95497173680601 GOMX-1 1 39430U 13066Q 26208.49521846 .00001160 00000-0 18049-3 0 9995 2 39430 97.6466 46.4154 0127198 308.4736 50.5113 14.69567360675833 LO-74 1 39440U 13066AA 26208.31781549 .00003125 00000-0 28985-3 0 9998 2 39440 97.8911 157.4785 0055677 254.0267 105.4814 14.94031386682985 AO-73 1 39444U 13066AE 26208.35411494 .00008513 00000-0 51957-3 0 9996 2 39444 97.8293 180.6581 0037694 68.3219 292.2016 15.09973422685723 DTUSAT-2 1 40030U 14033W 26207.99204239 .00007114 00000-0 37927-3 0 9997 2 40030 98.0882 208.2641 0009767 98.6017 261.6321 15.15486135658714 LILACSAT-2 1 40908U 15049K 26208.63112381 .00019385 00000-0 31447-3 0 9991 2 40908 97.4622 247.0382 0008663 105.3943 254.8268 15.52756280602023 Lapan A3 1 41603U 16040E 26208.58971388 .00003188 00000-0 10120-3 0 9999 2 41603 97.1510 203.4192 0008774 222.0200 138.0370 15.33342755561006 CAS-2T 1 41847U 16066G 26208.20116874 .00000766 00000-0 11618-3 0 9999 2 41847 98.3807 283.4795 0341551 8.3673 352.3018 14.44787241510577 TechnoSat 1 42829U 17042E 26208.00669635 .00002452 00000-0 17579-3 0 9997 2 42829 97.4317 4.1649 0016484 322.0542 37.9522 15.05160742492692 AO-91 1 43017U 17073E 26208.41950647 .00007706 00000-0 33293-3 0 9990 2 43017 97.4658 74.8150 0148856 188.9657 170.8912 15.13212866471473 S-Net D 1 43186U 18014G 26208.24057054 .00004801 00000-0 24622-3 0 9993 2 43186 97.5320 112.7823 0006507 231.5980 128.4669 15.17011954464835 S-Net B 1 43187U 18014H 26208.18685511 .00004670 00000-0 23980-3 0 9992 2 43187 97.5326 112.7166 0007234 227.0761 132.9866 15.16981020464824 S-Net A 1 43188U 18014J 26208.23922890 .00004749 00000-0 24353-3 0 9995 2 43188 97.5336 112.9852 0007115 227.4185 132.6449 15.17019672464833 S-Net C 1 43189U 18014K 26208.25691678 .00004679 00000-0 24021-3 0 9999 2 43189 97.5353 113.0837 0008615 220.5235 139.5358 15.16972354463382 Ten-Koh 1 43677U 18084G 26208.13474754 .00002192 00000-0 16736-3 0 9991 2 43677 98.0768 42.1829 0009074 357.0211 3.0957 15.03093710422160 PO-101 1 43678U 18084H 26208.58046676 .00001586 00000-0 13062-3 0 9994 2 43678 98.1220 46.5614 0011972 45.5099 314.7100 15.00601089422273 QO-100 1 43700U 18090A 26208.53812365 .00000000 00000-0 00000-0 0 9993 2 43700 0.0289 75.6680 0002511 82.4706 6.5825 1.00269805 28088 MinXSS-2 1 43758U 18099A 26208.61494919 .00041333 00000-0 74377-3 0 9990 2 43758 97.4516 286.1605 0008629 121.7117 238.4976 15.49679521420389 AO-95 1 43770U 18099N 26208.11357203 .00012081 00000-0 45114-3 0 9998 2 43770 97.4370 268.2282 0008376 194.4356 165.6646 15.27498002419319 SNUSat 2 1 43782U 18099AA 26208.56593293 .00009442 00000-0 41071-3 0 9996 2 43782 97.4040 261.3383 0011346 147.1421 213.0523 15.22410682419170 SnugLite 1 43784U 18099AC 26208.10152754 .00012439 00000-0 45780-3 0 9992 2 43784 97.3851 262.0046 0004400 131.2175 228.9444 15.27989649419411 ITASat 1 1 43786U 18099AE 26208.59279899 .00006692 00000-0 31763-3 0 9997 2 43786 97.4008 259.3044 0011852 203.1284 156.9419 15.19517234419043 EAGLET 1 1 43790U 18099AJ 26208.59194552 .00004050 00000-0 23137-3 0 9996 2 43790 97.4212 257.1915 0010584 197.0260 163.0618 15.13215458418444 ESEO 1 43792U 18099AL 26208.55668342 .00001507 00000-0 11211-3 0 9991 2 43792 97.3961 244.2150 0011691 185.8546 174.2546 15.04359715417871 JO-97 1 43803U 18099AX 26208.59708709 .00018998 00000-0 56269-3 0 9994 2 43803 97.4108 271.6001 0007316 122.2750 237.9203 15.34889602419828 Suomi 100 1 43804U 18099AY 26208.13109425 .00014100 00000-0 49760-3 0 9994 2 43804 97.4171 268.3937 0011350 134.6311 225.5857 15.29289817419524 ISAT 1 43879U 18111D 26207.82660149 .00138558 00000-0 97950-3 0 9999 2 43879 97.5842 146.3334 0008926 123.6002 236.6115 15.73547295417386 UWE-4 1 43880U 18111E 26207.79314071 .00034414 00000-0 64686-3 0 9993 2 43880 97.5830 138.0782 0008013 155.6008 204.5623 15.48476016416907 Sparrow 1 43881U 18111F 26207.79487216 .00382160 57615-4 11751-2 0 9992 2 43881 97.6058 152.8609 0009892 142.2872 217.9096 15.91719135417633 Prox-1 1 44339U 19036A 26208.21012468 .00012198 00000-0 11607-2 0 9992 2 44339 23.9924 206.7114 0006469 137.5743 222.5257 14.91475309379456 Taurus 1 1 44530U 19059C 26208.61192196 .00004539 00000-0 72337-3 0 9999 2 44530 98.6443 15.9667 0008908 176.7107 183.4158 14.72478692364597 TO-108 1 44881U 19093C 26208.63340103 .00001458 00000-0 17037-3 0 9994 2 44881 97.7520 279.8758 0012475 319.5393 40.4894 14.86579257357429 RS-44 1 44909U 19096E 26208.26799597 -.00000004 00000-0 -66215-4 0 9993 2 44909 82.5246 313.0750 0218249 50.8858 311.1425 12.79748797307473 SALSAT 1 46495U 20068K 26207.97313825 .00007917 00000-0 27242-3 0 9993 2 46495 97.8862 213.4781 0010474 153.1467 207.0317 15.30316182321443 CSS (TIANHE-1) 1 48274U 21035A 26205.70067244 .00011455 00000-0 15064-3 0 9996 2 48274 41.4690 94.2105 0001496 308.5106 51.5598 15.58352000299029 CUTE 1 49263U 21088D 26197.83813593 .08921004 25505-5 41832-3 0 9995 2 49263 97.3907 300.4441 0014216 277.7997 82.1689 16.41647044267308 TeikyoSat 4 1 49396U 21102B 26208.02480781 .00002216 00000-0 14133-3 0 9991 2 49396 97.3661 235.9594 0012887 149.1088 211.0902 15.09634687258738 Z-Sat 1 49399U 21102E 26208.59511748 .00003521 00000-0 17297-3 0 9998 2 49399 97.3314 242.6940 0018396 104.8626 255.4647 15.18546980259572 KOSEN 1 1 49402U 21102H 26208.04680001 .00008110 00000-0 30435-3 0 9990 2 49402 97.3170 249.4378 0015125 70.6784 289.6090 15.27365220260107 HO-113 1 50466U 21131B 26208.59491200 .00000493 00000-0 16595-3 0 9992 2 50466 98.4989 300.7667 0003746 356.2206 3.8954 14.41391043240930 SNUGLITE 2 1 52899U 22065F 26207.93510861 .00001039 00000-0 20556-3 0 9992 2 52899 98.2251 352.7073 0006200 256.3035 103.7477 14.64412659216810 UmKA 1 (RS40S) 1 57172U 23091G 26208.61843418 .00005954 00000-0 26931-3 0 9997 2 57172 97.5030 267.1655 0011773 346.1223 13.9687 15.21240462170155 CubeBel-2 (EU11S) 1 57175U 23091K 26208.61155934 .00013274 00000-0 45779-3 0 9994 2 57175 97.5032 272.2102 0008282 340.7670 19.3256 15.30086219170487 RS-38S 1 57189U 23091Z 26208.58665298 .00017446 00000-0 48016-3 0 9996 2 57189 97.5075 278.9111 0005209 283.6631 76.4033 15.37222650170890 SONATE-2 1 59112U 24043Q 26208.22316400 .00047291 00000-0 54648-3 0 9990 2 59112 97.5561 1.1774 0006073 64.9454 295.2433 15.61737721134131 GRBBeta 1 60237U 24128C 26208.63505263 .00004167 00000-0 28826-3 0 9990 2 60237 61.9900 74.3289 0035313 143.5062 216.8448 15.06885113112368 Curium One 1 60242U 24128H 26208.16035348 .00008224 00000-0 46860-3 0 9992 2 60242 61.9787 64.1420 0034875 138.9696 221.4034 15.13018686112504 ROBUSTA-3A 1 60243U 24128J 26208.61102121 .00008787 00000-0 51136-3 0 9993 2 60243 61.9866 65.2430 0036349 136.7219 223.6742 15.12148165112539 CatSat 1 60246U 24125J 26208.58424917 .00076393 00000-0 80379-3 0 9998 2 60246 97.2048 61.7550 0018109 38.3122 321.9420 15.63851495113690 HYPERVIEW-1G (RS66S) 1 61772U 24199AP 26208.59173631 .00496885 97863-4 15216-2 0 9995 2 61772 97.2760 90.7520 0008151 135.1884 225.0050 15.91832809141066 AO-123 1 61781U 24199AY 26208.62234253 .00008086 00000-0 23063-3 0 9992 2 61781 97.2948 76.9324 0014360 156.3261 203.8647 15.36212607140135 JINJUSat 1B 1 63210U 25052A 26208.52108630 .00018263 00000-0 54465-3 0 9996 2 63210 97.3958 105.3545 0001517 344.6492 15.4705 15.34704147 76285 NUSHSAT 1 1 63211U 25052B 26208.23554798 .00021968 00000-0 59891-3 0 9999 2 63211 97.3930 105.7803 0001456 11.8591 348.2688 15.37477681 76293 TEVEL2-4 1 63213U 25052D 26208.20046728 .00020041 00000-0 57403-3 0 9995 2 63213 97.3851 104.6857 0002085 30.6703 329.4663 15.35954659 76250 TEVEL2-5 1 63214U 25052E 26208.22572217 .00019518 00000-0 56262-3 0 9994 2 63214 97.3850 104.6472 0002290 32.3645 327.7739 15.35761076 76259 TEVEL2-6 1 63215U 25052F 26208.23897430 .00019211 00000-0 55444-3 0 9994 2 63215 97.3858 104.6452 0002209 33.5282 326.6102 15.35725425 76256 TEVEL2-1 1 63217U 25052H 26208.21738020 .00018953 00000-0 55724-3 0 9996 2 63217 97.3828 104.1985 0002997 34.0260 326.1175 15.35142068 76236 TEVEL2-3 1 63218U 25052J 26208.21044189 .00019179 00000-0 56270-3 0 9991 2 63218 97.3834 104.2192 0002794 39.4632 320.6814 15.35207308 76230 TEVEL2-2 1 63219U 25052K 26208.15223727 .00018754 00000-0 55128-3 0 9991 2 63219 97.3829 104.1363 0002979 35.0050 325.1389 15.35150730 76227 TEVEL2-9 1 63237U 25052AD 26208.50894344 .00017643 00000-0 55354-3 0 9996 2 63237 97.3893 103.7786 0006259 21.3432 338.8070 15.33081855 76204 TEVEL2-7 1 63238U 25052AE 26208.16628216 .00016860 00000-0 53474-3 0 9993 2 63238 97.3891 103.3347 0006414 22.3817 337.7704 15.32744834 76140 TEVEL2-8 1 63239U 25052AF 26208.24019908 .00017168 00000-0 54462-3 0 9995 2 63239 97.3894 103.3841 0006396 22.1923 337.9594 15.32733882 76159 SPIRONE 1 66657U 25274H 26208.24961354 .00001919 00000-0 18664-3 0 9990 2 66657 97.7469 136.9710 0010524 237.3421 122.6784 14.93694262 36202 K-HERO 1 66660U 25274L 26208.24318830 .00001771 00000-0 17091-3 0 9998 2 66660 97.7479 137.1549 0012336 242.8636 117.1327 14.94099521 36213 SNUGLITE-III DURI 1 66661U 25274M 26208.23011249 .00001925 00000-0 18515-3 0 9995 2 66661 97.7475 137.1630 0012974 243.9724 116.0160 14.94123662 36216 SAKHACUBE-CHOLBON 1 67290U 25313AU 26208.18003534 .00009467 00000-0 37552-3 0 9991 2 67290 97.3921 282.7288 0008643 204.1620 155.9214 15.25549521 32078 RS95S (QMR-KWT-2) 1 67291U 25313AV 26208.19312125 .00013997 00000-0 52592-3 0 9996 2 67291 97.3922 283.0089 0008476 200.8616 159.2278 15.27254224 32099 Ten-Koh2 1 68261U 25241B 26207.48913825 .00007213 00000-0 30453-3 0 9995 2 68261 51.6557 132.5239 0004880 268.3089 91.7330 15.24287706 20901 JACK-002 1 68417U 26067B 26208.13106787 .00006583 00000-0 31013-3 0 9991 2 68417 97.4582 166.2459 0003822 113.7346 246.4290 15.19840690 18016 DISCO 2 1 68431U 26067R 26208.35673910 .00008701 00000-0 41133-3 0 9996 2 68431 97.4620 166.4596 0002037 151.3659 208.7688 15.19629589 18048 HADES-SA (SpinnyONE) 1 68446U 26067AG 26208.32048383 .00019161 00000-0 88187-3 0 9991 2 68446 97.4415 166.0570 0004308 311.9002 48.1865 15.20355710 18028 PARUS-6U1 1 68456U 26067AS 26207.87861407 .00005743 00000-0 28655-3 0 9996 2 68456 97.4573 165.6477 0003627 295.6055 64.4804 15.17900232 17950 SAL-E 1 68458U 26067AU 26207.86583761 .00007648 00000-0 37618-3 0 9996 2 68458 97.4499 165.5506 0003905 311.1756 48.9141 15.18286015 17950 FSI-SAT 2 1 68792U 26088A 26208.39103032 .00003606 00000-0 24368-3 0 9996 2 68792 97.5109 356.6596 0013418 336.0532 24.0070 15.07119511 14340 OrigamiSat 2 1 68795U 26088D 26208.40859688 .00011502 00000-0 71845-3 0 9992 2 68795 97.5111 356.9452 0013377 302.2679 57.7253 15.09555183 14360 ARICA 2 1 68796U 26088E 26208.29082232 .00004777 00000-0 30786-3 0 9998 2 68796 97.5105 356.7806 0014243 303.8679 56.1194 15.08709078 14343 WASEDA-SAT-ZERO-II 1 68797U 26088F 26208.61076434 .00006202 00000-0 39488-3 0 9995 2 68797 97.5104 357.1177 0013865 302.2129 57.7755 15.09046196 14392 MANGARO-II-Piscus 1 68798U 26088G 26207.93634446 .00003493 00000-0 22400-3 0 9998 2 68798 97.5113 356.4962 0017492 307.8882 52.0765 15.09034727 14299 IO-86 1 40931U 25360.30710720 .00000000 00000-0 12800-3 0 00 2 40931 6.0006 332.5373 0012733 338.8432 8.1437 14.79075515 01 LILIUM-4 1 71922C 26067AC 26089.50133053 -.00014632 00000 0 -74472-3 0 04 2 71922 97.4497 49.1617 0004341 5.9603 355.7042 15.16896692 16